Miscellaneous Local Product
Issued by NWS Hastings, NE

Home | Current Version | Previous Version | Text Only | Print | Product List | Glossary Off
Versions: 1 2 3 4 5 6 7 8 9 10 11 12 13 14 15 16 17 18 19 20 21 22 23 24 25 26 27 28 29 30 31 32 33 34 35 36 37 38 39 40 41 42 43 44 45 46 47 48 49 50

868
AXUS43 KGID 080302
MISGRI

GID CWA HOURLY WEATHER ROUNDUP
NATIONAL WEATHER SERVICE HASTINGS NE
900 PM CST SUN FEB 07 2016

NOTE: "FAIR" INDICATES FEW OR NO CLOUDS BELOW 12,000 FEET WITH NO
SIGNIFICANT WEATHER AND/OR OBSTRUCTIONS TO VISIBILITY.

...SOUTH CENTRAL NEBRASKA...

CITY           SKY/WX    TMP DP  RH WIND       PRES   REMARKS
GRAND ISLAND   CLOUDY    35  20  54 NW25G32   30.12R WCI  23
HASTINGS       CLEAR     35  19  52 NW32G45   30.11R WCI  21
ORD            CLEAR     33  17  51 NW28G36   30.11R WCI  20
YORK           CLOUDY    36  25  64 NW33G39   30.06R WCI  22
AURORA         PTCLDY    35  22  58 NW35G41   30.10R WCI  21
LEXINGTON      CLEAR     33  15  48 NW18      30.18S WCI  21
HOLDREGE       CLEAR     30  17  57 NW14G20   30.16R WCI  20
HEBRON         PTCLDY    36  23  60 NW13      30.10R WCI  27

...NEBRASKA PANHANDLE...

CITY           SKY/WX    TMP DP  RH WIND       PRES   REMARKS
CHADRON        CLEAR     29  15  56 W21       30.31S WCI  16
ALLIANCE       CLEAR     26  12  55 NW24      30.27S WCI  11
SCOTTSBLUFF    CLOUDY    27  14  58 NW15      30.36R WCI  15
SIDNEY         CLEAR     27  13  55 NW26      30.32R WCI  12

...WESTERN AND NORTH CENTRAL NEBRASKA...

CITY           SKY/WX    TMP DP  RH WIND       PRES   REMARKS
VALENTINE      CLOUDY    33  18  53 NW30G47   30.17R WCI  19
AINSWORTH      PTCLDY    33  17  53 NW24G39   30.16R WCI  20
ONEILL         PTCLDY    33  18  53 NW33G41   30.09R WCI  19
BROKEN BOW     CLEAR     33  17  51 N24G39    30.14R WCI  20
IMPERIAL       CLEAR     29  14  53 NW18G28   30.28S WCI  16
NORTH PLATTE   CLEAR     27  15  61 NW14      30.21R WCI  16
MCCOOK         CLEAR     31  18  58 NW23G32   30.24R WCI  18

...EASTERN NEBRASKA...

CITY           SKY/WX    TMP DP  RH WIND       PRES   REMARKS
NORFOLK        PTCLDY    34  21  59 NW33G46   30.00S WCI  20
SO SIOUX CITY  LGT SNOW  31  26  82 NW21      29.96S WCI  18
TEKAMAH        LGT SNOW  33  29  85 NW20G25   29.99S FOG     WCI  21
COLUMBUS       CLOUDY    36  18  48 NW24G39   30.05R WCI  24
ALBION         CLEAR     34  19  54 NW28G43   30.04S WCI  21
OMAHA EPPLEY   MIX PCPN  34  28  79 NW16G25   29.98S WCI  24
OFFUTT AFB     FLURRIES  34  29  82 NW17      29.99S WCI  23
MILLARD        CLOUDY    35  28  78 NW15G22   30.00F WCI  25
LINCOLN        CLOUDY    36  28  73 NW8       30.05S WCI  30
NEBRASKA CITY  CLOUDY    34  29  83 NW21G26   30.01S WCI  22
BEATRICE       CLOUDY    37  26  66 NW20G26   30.04F WCI  26
FALLS CITY     CLOUDY    35  30  82 NW12      30.02S WCI  27

...NORTHERN KANSAS...

CITY           SKY/WX    TMP DP  RH WIND       PRES   REMARKS
GOODLAND       CLOUDY    30  17  58 NW18G28   30.31R WCI  18
HILL CITY      CLEAR     33  21  61 NW17      30.23S WCI  22
NORTON         CLEAR     32  19  59 W24       30.21R WCI  19
PHILLIPSBURG   CLEAR     36  21  55 W17G24    30.20S WCI  25
SMITH CENTER   CLEAR     34  19  55 W15       30.18R WCI  24
BELOIT         CLEAR     36  21  55 W13       30.15S WCI  27
HAYS           CLEAR     36  16  44 NW22      30.23R WCI  24
RUSSELL        CLEAR     35  22  58 NW17      30.20R WCI  25
CONCORDIA      CLEAR     34  21  59 W12       30.12R WCI  25
SALINA         CLEAR     40  20  44 NW18      30.17R WCI  31
TOPEKA         CLOUDY    41  23  48 W14       30.07F



USA.gov is the U.S. government's official web portal to all federal, state and local government web resources and services.